H1 CPF 2 NER 2020 11 6 9 311 01 glonass139 H2 1808601 9139 43687 2020 11 6 0 0 0 2020 11 9 23 45 0 900 1 1 0 0 0 1 H9 10 0 59159 0.00000 0 -6026505.794 -15822551.706 19102795.007 10 0 59159 900.00000 0 -4053477.344 -14366896.000 20708270.222 10 0 59159 1800.00000 0 -1831763.235 -12970004.352 21912497.764 10 0 59159 2700.00000 0 594014.690 -11682771.206 22692222.223 10 0 59159 3600.00000 0 3170015.648 -10547941.428 23032393.296 10 0 59159 4500.00000 0 5835169.869 -9598388.761 22926449.948 10 0 59159 5400.00000 0 8523473.652 -8855824.649 22376443.940 10 0 59159 6300.00000 0 11166496.092 -8329990.304 21393000.638 10 0 59159 7200.00000 0 13695995.153 -8018364.873 19995117.817 10 0 59159 8100.00000 0 16046536.374 -7906401.365 18209805.814 10 0 59159 9000.00000 0 18158007.045 -7968280.271 16071575.096 10 0 59159 9900.00000 0 19977922.596 -8168149.490 13621780.043 10 0 59159 10800.00000 0 21463430.186 -8461798.923 10907830.353 10 0 59159 11700.00000 0 22582926.496 -8798699.886 7982284.017 10 0 59159 12600.00000 0 23317222.264 -9124324.007 4901838.378 10 0 59159 13500.00000 0 23660204.663 -9382644.229 1726237.867 10 0 59159 14400.00000 0 23618969.326 -9518712.396 -1482880.954 10 0 59159 15300.00000 0 23213415.832 -9481204.282 -4663184.848 10 0 59159 16200.00000 0 22475323.035 -9224823.741 -7752856.506 10 0 59159 17100.00000 0 21446942.555 -8712463.205 -10691800.438 10 0 59159 18000.00000 0 20179169.202 -7917027.726 -13422817.958 10 0 59159 18900.00000 0 18729365.154 -6822843.689 -15892727.753 10 0 59159 19800.00000 0 17158929.452 -5426590.722 -18053409.456 10 0 59159 20700.00000 0 15530715.372 -3737715.510 -19862749.099 10 0 59159 21600.00000 0 13906404.620 -1778307.997 -21285467.420 10 0 59159 22500.00000 0 12343949.226 417556.705 -22293814.338 10 0 59159 23400.00000 0 10895189.077 2804984.713 -22868115.638 10 0 59159 24300.00000 0 9603745.535 5329890.595 -22997160.889 10 0 59159 25200.00000 0 8503279.763 7931018.399 -22678424.854 10 0 59159 26100.00000 0 7616188.923 10542272.642 -21918117.882 10 0 59159 27000.00000 0 6952794.681 13095262.349 -20731064.275 10 0 59159 27900.00000 0 6511057.547 15521952.088 -19140410.923 10 0 59159 28800.00000 0 6276828.230 17757309.257 -17177171.991 10 0 59159 29700.00000 0 6224624.290 19741837.006 -14879618.711 10 0 59159 30600.00000 0 6318898.045 21423886.983 -12292526.420 10 0 59159 31500.00000 0 6515740.798 22761655.188 -9466294.071 10 0 59159 32400.00000 0 6764949.887 23724777.861 -6455953.941 10 0 59159 33300.00000 0 7012369.694 24295461.168 -3320091.573 10 0 59159 34200.00000 0 7202406.232 24469098.259 -119697.904 10 0 59159 35100.00000 0 7280607.728 24254349.127 3083023.256 10 0 59159 36000.00000 0 7196201.066 23672681.363 6225868.433 10 0 59159 36900.00000 0 6904476.166 22757392.703 9247844.104 10 0 59159 37800.00000 0 6368917.177 21552157.974 12090348.907 10 0 59159 38700.00000 0 5562990.314 20109162.785 14698305.522 10 0 59159 39600.00000 0 4471513.077 18486903.345 17021220.514 10 0 59159 40500.00000 0 3091547.280 16747745.249 19014152.347 10 0 59159 41400.00000 0 1432778.409 14955343.548 20638569.878 10 0 59159 42300.00000 0 -482634.693 13172031.696 21863085.839 10 0 59159 43200.00000 0 -2620733.962 11456287.606 22664052.504 10 0 59159 44100.00000 0 -4936932.674 9860381.357 23026009.299 10 0 59159 45000.00000 0 -7377634.693 8428301.289 22941974.738 10 0 59159 45900.00000 0 -9882236.444 7194043.374 22413577.866 10 0 59159 46800.00000 0 -12385430.050 6180333.727 21451027.020 10 0 59159 47700.00000 0 -14819713.659 5397836.284 20072916.478 10 0 59159 48600.00000 0 -17118006.448 4844877.737 18305874.239 10 0 59159 49500.00000 0 -19216261.320 4507700.577 16184056.877 10 0 59159 50400.00000 0 -21055967.871 4361233.422 13748500.123 10 0 59159 51300.00000 0 -22586442.464 4370346.348 11046336.482 10 0 59159 52200.00000 0 -23766810.502 4491538.766 8129893.683 10 0 59159 53100.00000 0 -24567598.190 4674989.204 5055690.360 10 0 59159 54000.00000 0 -24971867.009 4866880.885 1883347.464 10 0 59159 54900.00000 0 -24975842.777 5011905.103 -1325564.103 10 0 59159 55800.00000 0 -24589012.104 5055836.503 -4508717.454 10 0 59159 56700.00000 0 -23833681.332 4948070.822 -7604242.047 10 0 59159 57600.00000 0 -22744015.626 4644016.870 -10551930.445 10 0 59159 58500.00000 0 -21364597.879 4107240.316 -13294415.395 10 0 59159 59400.00000 0 -19748567.530 3311267.027 -15778293.598 10 0 59159 60300.00000 0 -17955417.201 2240967.918 -17955173.568 10 0 59159 61200.00000 0 -16048539.741 893464.938 -19782626.364 10 0 59159 62100.00000 0 -14092628.838 -721482.035 -21225020.033 10 0 59159 63000.00000 0 -12151042.517 -2581625.630 -22254221.023 10 0 59159 63900.00000 0 -10283240.542 -4652914.127 -22850148.383 10 0 59159 64800.00000 0 -8542403.371 -6890680.220 -23001169.705 10 0 59159 65700.00000 0 -6973332.637 -9241286.779 -22704330.845 10 0 59159 66600.00000 0 -5610721.139 -11644161.538 -21965414.784 10 0 59159 67500.00000 0 -4477864.523 -14034136.190 -20798828.415 10 0 59159 68400.00000 0 -3585868.089 -16343992.300 -19227319.420 10 0 59159 69300.00000 0 -2933381.124 -18507107.590 -17281528.837 10 0 59159 70200.00000 0 -2506868.707 -20460091.794 -14999388.197 10 0 59159 71100.00000 0 -2281408.060 -22145301.669 -12425373.263 10 0 59159 72000.00000 0 -2221974.293 -23513129.669 -9609629.403 10 0 59159 72900.00000 0 -2285159.533 -24523970.503 -6606986.252 10 0 59159 73800.00000 0 -2421251.069 -25149783.387 -3475881.553 10 0 59159 74700.00000 0 -2576579.031 -25375185.005 -277216.072 10 0 59159 75600.00000 0 -2696032.808 -25198028.177 2926837.323 10 0 59159 76500.00000 0 -2725638.509 -24629443.054 6074046.444 10 0 59159 77400.00000 0 -2615087.551 -23693340.415 9103330.188 10 0 59159 78300.00000 0 -2320108.849 -22425399.254 11955942.669 10 0 59159 79200.00000 0 -1804584.139 -20871582.412 14576608.123 10 0 59159 80100.00000 0 -1042317.133 -19086243.525 16914584.780 10 0 59159 81000.00000 0 -18382.127 -17129905.266 18924637.840 10 0 59159 81900.00000 0 1270004.601 -15066802.007 20567903.721 10 0 59159 82800.00000 0 2813127.047 -12962289.409 21812629.993 10 0 59159 83700.00000 0 4588940.643 -10880228.222 22634778.071 10 0 59159 84600.00000 0 6563765.653 -8880450.234 23018478.258 10 0 59159 85500.00000 0 8693474.666 -7016410.487 22956329.453 10 0 59160 0.00000 0 10925125.861 -5333121.819 22449538.514 10 0 59160 900.00000 0 13198975.772 -3865456.200 21507896.906 10 0 59160 1800.00000 0 15450788.857 -2636881.518 20149595.327 10 0 59160 2700.00000 0 17614350.161 -1658686.323 18400879.017 10 0 59160 3600.00000 0 19624077.851 -929722.361 16295549.933 10 0 59160 4500.00000 0 21417628.174 -436676.241 13874324.108 10 0 59160 5400.00000 0 22938385.485 -154857.947 11184055.461 10 0 59160 6300.00000 0 24137734.045 -49473.250 8276839.702 10 0 59160 7200.00000 0 24977016.796 -77326.691 5209014.632 10 0 59160 8100.00000 0 25429098.974 -188883.618 2040075.252 10 0 59160 9000.00000 0 25479470.354 -330604.418 -1168475.961 10 0 59160 9900.00000 0 25126838.988 -447452.348 -4354321.462 10 0 59160 10800.00000 0 24383190.423 -485468.564 -7455540.560 10 0 59160 11700.00000 0 23273308.751 -394304.766 -10411816.979 10 0 59160 12600.00000 0 21833778.573 -129605.300 -13165617.897 10 0 59160 13500.00000 0 20111508.931 344863.436 -15663320.869 10 0 59160 14400.00000 0 18161840.522 1055427.882 -17856265.918 10 0 59160 15300.00000 0 16046315.282 2017143.727 -19701711.516 10 0 59160 16200.00000 0 13830201.752 3232913.216 -21163675.183 10 0 59160 17100.00000 0 11579879.966 4693122.492 -22213641.810 10 0 59160 18000.00000 0 9360195.594 6375815.889 -22831125.383 10 0 59160 18900.00000 0 7231894.299 8247401.458 -23004072.908 10 0 59160 19800.00000 0 5249243.715 10263859.405 -22729102.404 10 0 59160 20700.00000 0 3457942.620 12372403.662 -22011570.196 10 0 59160 21600.00000 0 1893404.446 14513527.666 -20865466.081 10 0 59160 22500.00000 0 579486.454 16623348.952 -19313138.415 10 0 59160 23400.00000 0 -472283.013 18636154.405 -17384854.532 10 0 59160 24300.00000 0 -1262948.021 20487039.382 -15118205.229 10 0 59160 25200.00000 0 -1805830.534 22114529.881 -12557365.191 10 0 59160 26100.00000 0 -2125712.012 23463077.462 -9752224.263 10 0 59160 27000.00000 0 -2257527.475 24485322.083 -6757407.088 10 0 59160 27900.00000 0 -2244629.100 25144027.815 -3631200.891 10 0 59160 28800.00000 0 -2136694.551 25413610.340 -434413.244 10 0 59160 29700.00000 0 -1987370.215 25281192.543 2770817.152 10 0 59160 30600.00000 0 -1851750.508 24747144.593 5922232.775 10 0 59160 31500.00000 0 -1783801.026 23825086.780 8958668.339 10 0 59160 32400.00000 0 -1833835.322 22541356.077 11821236.797 10 0 59160 33300.00000 0 -2046152.368 20933959.863 14454467.174 10 0 59160 34200.00000 0 -2456934.561 19051061.601 16807372.427 10 0 59160 35100.00000 0 -3092494.754 16949062.550 18834427.321 10 0 59160 36000.00000 0 -3967945.909 14690359.915 20496438.399 10 0 59160 36900.00000 0 -5086349.003 12340874.954 21761290.330 10 0 59160 37800.00000 0 -6438374.877 9967453.397 22604555.569 10 0 59160 38700.00000 0 -8002494.388 7635245.359 23009956.819 10 0 59160 39600.00000 0 -9745689.388 5405172.367 22969674.414 10 0 59160 40500.00000 0 -11624655.731 3331585.131 22484493.554 10 0 59160 41400.00000 0 -13587449.360 1460207.634 21563788.928 10 0 59160 42300.00000 0 -15575508.282 -173548.625 20225347.046 10 0 59160 43200.00000 0 -17525967.771 -1545831.673 18495029.275 10 0 59160 44100.00000 0 -19374173.974 -2645106.730 16406281.251 10 0 59160 45000.00000 0 -21056292.430 -3472393.771 13999497.104 10 0 59160 45900.00000 0 -22511903.906 -4040975.704 11321249.511 10 0 59160 46800.00000 0 -23686479.801 -4375589.657 8423399.161 10 0 59160 47700.00000 0 -24533633.886 -4511135.335 5362099.785 10 0 59160 48600.00000 0 -25017055.910 -4490954.720 2196717.041 10 0 59160 49500.00000 0 -25112045.362 -4364755.475 -1011318.459 10 0 59160 50400.00000 0 -24806580.036 -4186265.668 -4199701.935 10 0 59160 51300.00000 0 -24101873.252 -4010719.127 -7306465.905 10 0 59160 52200.00000 0 -23012394.974 -3892278.219 -10271188.487 10 0 59160 53100.00000 0 -21565354.524 -3881503.867 -13036174.362 10 0 59160 54000.00000 0 -19799665.424 -4022980.907 -15547584.775 10 0 59160 54900.00000 0 -17764434.724 -4353200.594 -17756493.794 10 0 59160 55800.00000 0 -15517039.468 -4898791.252 -19619849.460 10 0 59160 56700.00000 0 -13120870.426 -5675173.475 -21101320.463 10 0 59160 57600.00000 0 -10642837.272 -6685698.303 -22172011.309 10 0 59160 58500.00000 0 -8150739.591 -7921306.272 -22811031.542 10 0 59160 59400.00000 0 -5710613.654 -9360723.172 -23005907.647 10 0 59160 60300.00000 0 -3384165.838 -10971185.569 -22752829.379 10 0 59160 61200.00000 0 -1226399.970 -12709666.515 -22056725.504 10 0 59160 62100.00000 0 716462.499 -14524550.707 -20931167.447 10 0 59160 63000.00000 0 2408683.049 -16357689.156 -19398102.643 10 0 59160 63900.00000 0 3826256.880 -18146747.168 -17487422.869 10 0 59160 64800.00000 0 4957662.699 -19827746.960 -15236376.141 10 0 59160 65700.00000 0 5804081.453 -21337697.843 -12688833.867 10 0 59160 66600.00000 0 6379076.467 -22617203.031 -9894428.059 10 0 59160 67500.00000 0 6707750.397 -23612933.185 -6907575.970 10 0 59160 68400.00000 0 6825416.530 -24279862.386 -3786411.881 10 0 59160 69300.00000 0 6775842.526 -24583172.384 -591647.725 10 0 59160 70200.00000 0 6609142.733 -24499745.194 2614614.411 10 0 59160 71100.00000 0 6379409.875 -24019181.612 5770094.057 10 0 59160 72000.00000 0 6142187.663 -23144303.474 8813544.097 10 0 59160 72900.00000 0 5951892.199 -21891119.318 11685938.574 10 0 59160 73800.00000 0 5859291.784 -20288255.706 14331613.450 10 0 59160 74700.00000 0 5909151.765 -18375878.858 16699338.394 10 0 59160 75600.00000 0 6138143.654 -16204152.279 18743299.539 10 0 59160 76500.00000 0 6573106.292 -13831295.104 20423975.113 10 0 59160 77400.00000 0 7229731.737 -11321322.096 21708888.185 10 0 59160 78300.00000 0 8111730.710 -8741558.893 22573223.267 10 0 59160 79200.00000 0 9210512.420 -6160034.840 23000296.169 10 0 59160 80100.00000 0 10505392.246 -3642860.502 22981869.092 10 0 59160 81000.00000 0 11964319.076 -1251697.096 22518305.738 10 0 59160 81900.00000 0 13545092.763 958578.932 21618563.870 10 0 59160 82800.00000 0 15197021.977 2941920.901 20300025.487 10 0 59160 83700.00000 0 16862954.638 4662783.230 18588167.490 10 0 59160 84600.00000 0 18481597.674 6097351.076 16516078.401 10 0 59160 85500.00000 0 19990030.568 7234278.101 14123829.402 10 0 59161 0.00000 0 21326308.903 8074902.486 11457710.706 10 0 59161 900.00000 0 22432049.685 8632932.516 8569346.298 10 0 59161 1800.00000 0 23254891.172 8933615.409 5514704.062 10 0 59161 2700.00000 0 23750722.846 9012423.704 2353018.188 10 0 59161 3600.00000 0 23885592.869 8913315.177 -854354.942 10 0 59161 4500.00000 0 23637210.797 8686638.972 -4045125.875 10 0 59161 5400.00000 0 22995981.646 8386776.725 -7157283.014 10 0 59161 6300.00000 0 21965526.121 8069618.543 -10130301.574 10 0 59161 7200.00000 0 20562663.574 7789981.141 -12906326.397 10 0 59161 8100.00000 0 18816856.824 7599078.132 -15431304.954 10 0 59161 9000.00000 0 16769140.673 7542150.528 -17656047.746 10 0 59161 9900.00000 0 14470577.972 7656358.888 -19537194.596 10 0 59161 10800.00000 0 11980306.967 7969027.545 -21038067.409 10 0 59161 11700.00000 0 9363261.045 8496316.474 -22129392.183 10 0 59161 12600.00000 0 6687655.928 9242378.224 -22789875.719 10 0 59161 13500.00000 0 4022349.098 10199036.714 -23006625.488 10 0 59161 14400.00000 0 1434181.599 11346002.551 -22775404.209 10 0 59161 15300.00000 0 -1014586.802 12651616.664 -22100714.016 10 0 59161 16200.00000 0 -3268642.254 14074091.565 -20995708.502 10 0 59161 17100.00000 0 -5281682.883 15563198.421 -19481934.293 10 0 59161 18000.00000 0 -7018100.448 17062328.984 -17588907.275 10 0 59161 18900.00000 0 -8454208.209 18510845.504 -15353531.880 10 0 59161 19800.00000 0 -9578964.799 19846619.400 -12819375.002 10 0 59161 20700.00000 0 -10394165.221 21008651.310 -10035809.169 10 0 59161 21600.00000 0 -10914092.780 21939661.704 -7057042.241 10 0 59161 22500.00000 0 -11164648.609 22588542.466 -3941053.216 10 0 59161 23400.00000 0 -11181997.513 22912565.802 -748455.798 10 0 59161 24300.00000 0 -11010789.340 22879257.278 2458687.351 10 0 59161 25200.00000 0 -10702032.899 22467854.176 5618075.790 10 0 59161 26100.00000 0 -10310713.855 21670288.070 8668383.656 10 0 59161 27000.00000 0 -9893258.515 20491650.796 11550449.215 10 0 59161 27900.00000 0 -9504951.505 18950124.789 14208418.495 10 0 59161 28800.00000 0 -9197416.698 17076381.316 16590820.953 10 0 59161 29700.00000 0 -9016267.662 14912472.249 18651557.031 10 0 59161 30600.00000 0 -8999026.216 12510261.883 20350779.437 10 0 59161 31500.00000 0 -9173396.128 9929464.160 21655652.186 10 0 59161 32400.00000 0 -9555963.830 7235366.522 22540974.113 10 0 59161 33300.00000 0 -10151380.130 4496334.129 22989656.052 10 0 59161 34200.00000 0 -10952056.867 1781196.855 22993043.579 10 0 59161 35100.00000 0 -11938391.185 -843374.077 22551079.942 10 0 59161 36000.00000 0 -13079508.431 -3315392.817 21672306.501 10 0 59161 36900.00000 0 -14334493.292 -5579885.901 20373700.711 10 0 59161 37800.00000 0 -15654058.772 -7590924.761 18680354.411 10 0 59161 38700.00000 0 -16982584.457 -9313280.884 16624997.833 10 0 59161 39600.00000 0 -18260440.070 -10723635.973 14247377.508 10 0 59161 40500.00000 0 -19426498.267 -11811297.651 11593498.859 10 0 59161 41400.00000 0 -20420732.347 -12578391.467 8714746.805 10 0 59161 42300.00000 0 -21186790.459 -13039521.383 5666900.301 10 0 59161 43200.00000 0 -21674438.401 -13220913.118 2509058.872 10 0 59161 44100.00000 0 -21841767.938 -13159076.235 -697498.718 10 0 59161 45000.00000 0 -21657076.959 -12899041.199 -3890501.837 10 0 59161 45900.00000 0 -21100341.058 -12492245.673 -7007898.319 10 0 59161 46800.00000 0 -20164213.067 -11994159.438 -9989064.013 10 0 59161 47700.00000 0 -18854506.699 -11461748.558 -12775987.378 10 0 59161 48600.00000 0 -17190142.152 -10950886.573 -15314405.416 10 0 59161 49500.00000 0 -15202554.194 -10513822.924 -17554868.099 10 0 59161 50400.00000 0 -12934586.032 -10196816.602 -19453709.727 10 0 59161 51300.00000 0 -10438914.041 -10038036.065 -20973907.644 10 0 59161 52200.00000 0 -7776068.241 -10065815.294 -22085811.023 10 0 59161 53100.00000 0 -5012130.660 -10297340.675 -22767724.999 10 0 59161 54000.00000 0 -2216207.246 -10737825.137 -23006338.481 10 0 59161 54900.00000 0 542221.457 -11380205.247 -22796987.028 10 0 59161 55800.00000 0 3195960.430 -12205374.692 -22143745.481 10 0 59161 56700.00000 0 5682660.303 -13182944.763 -21059348.485 10 0 59161 57600.00000 0 7947170.950 -14272500.024 -19564940.357 10 0 59161 58500.00000 0 9943590.607 -15425296.196 -17689659.269 10 0 59161 59400.00000 0 11636925.601 -16586328.461 -15470063.981 10 0 59161 60300.00000 0 13004292.221 -17696682.539 -12949414.534 10 0 59161 61200.00000 0 14035611.588 -18696068.804 -10176821.427 10 0 59161 62100.00000 0 14733769.994 -19525431.876 -7206280.392 10 0 59161 63000.00000 0 15114239.832 -20129524.968 -4095612.279 10 0 59161 63900.00000 0 15204179.010 -20459339.772 -905329.607 10 0 59161 64800.00000 0 15041048.934 -20474288.984 2302547.355 10 0 59161 65700.00000 0 14670811.311 -20144049.216 5465701.109 10 0 59161 66600.00000 0 14145781.667 -19449986.640 8522729.816 10 0 59161 67500.00000 0 13522231.667 -18386105.546 11414338.548 10 0 59161 68400.00000 0 12857842.491 -16959480.246 14084485.714 10 0 59161 69300.00000 0 12209117.280 -15190152.600 16481462.584 10 0 59161 70200.00000 0 11628861.848 -13110499.743 18558885.616 10 0 59161 71100.00000 0 11163839.446 -10764098.577 20276583.348 10 0 59161 72000.00000 0 10852697.585 -8204134.312 21601361.767 10 0 59161 72900.00000 0 10724253.188 -5491418.882 22507634.708 10 0 59161 73800.00000 0 10796207.173 -2692100.712 22977908.388 10 0 59161 74700.00000 0 11074341.571 124840.128 23003111.802 10 0 59161 75600.00000 0 11552232.320 2890209.087 22582767.512 10 0 59161 76500.00000 0 12211489.567 5537219.815 21724999.990 10 0 59161 77400.00000 0 13022515.639 8004015.376 20446381.445 10 0 59161 78300.00000 0 13945749.535 10235985.262 18771617.741 10 0 59161 79200.00000 0 14933346.729 12187783.660 16733079.724 10 0 59161 80100.00000 0 15931224.966 13824966.356 14370187.988 10 0 59161 81000.00000 0 16881391.363 15125179.222 11728661.756 10 0 59161 81900.00000 0 17724454.165 16078849.397 8859645.074 10 0 59161 82800.00000 0 18402214.292 16689350.552 5818726.132 10 0 59161 83700.00000 0 18860228.057 16972635.437 2664867.698 10 0 59161 84600.00000 0 19050233.014 16956351.031 -540731.368 10 0 59161 85500.00000 0 18932334.141 16678473.248 -3735821.660 10 0 59162 0.00000 0 18476857.203 16185518.564 -6858312.853 10 0 59162 900.00000 0 17665789.242 15530407.924 -9847484.026 10 0 59162 1800.00000 0 16493745.037 14770072.984 -12645169.594 10 0 59162 2700.00000 0 14968414.739 13962906.539 -15196898.354 10 0 59162 3600.00000 0 13110474.073 13166164.761 -17452961.874 10 0 59162 4500.00000 0 10952957.574 12433432.130 -19369390.883 10 0 59162 5400.00000 0 8540120.108 11812256.721 -20908819.951 10 0 59162 6300.00000 0 5925832.752 11342056.584 -22041223.053 10 0 59162 7200.00000 0 3171579.185 11052386.431 -22744505.125 10 0 59162 8100.00000 0 344135.507 10961638.495 -23004937.781 10 0 59162 9000.00000 0 -2486970.214 11076232.972 -22817430.432 10 0 59162 9900.00000 0 -5252112.870 11390332.599 -22185631.331 10 0 59162 10800.00000 0 -7884229.257 11886093.623 -21121856.502 10 0 59162 11700.00000 0 -10321370.309 12534442.575 -19646847.866 10 0 59162 12600.00000 0 -12509040.301 13296345.857 -17789365.368 10 0 59162 13500.00000 0 -14402225.813 14124518.110 -15585621.155 10 0 59162 14400.00000 0 -15967030.303 14965496.700 -13078567.127 10 0 59162 15300.00000 0 -17181846.769 15761993.917 -10317050.141 10 0 59162 16200.00000 0 -18038020.659 16455426.746 -7354851.944 10 0 59162 17100.00000 0 -18539976.768 16988516.477 -4249633.183 10 0 59162 18000.00000 0 -18704806.547 17307847.542 -1061802.958 10 0 59162 18900.00000 0 -18561335.181 17366276.856 2146663.216 10 0 59162 19800.00000 0 -18148709.685 17125091.437 5313433.286 10 0 59162 20700.00000 0 -17514569.413 16555823.044 8377032.053 10 0 59162 21600.00000 0 -16712877.726 15641643.298 11278034.101 10 0 59162 22500.00000 0 -15801507.497 14378280.634 13960213.002 10 0 59162 23400.00000 0 -14839683.022 12774420.808 16371624.620 10 0 59162 24300.00000 0 -13885386.339 10851574.316 18465604.180 10 0 59162 25200.00000 0 -12992836.933 8643416.296 20201658.686 10 0 59162 26100.00000 0 -12210150.127 6194626.398 21546238.545 10 0 59162 27000.00000 0 -11577271.554 3559276.478 22473374.802 10 0 59162 27900.00000 0 -11124273.244 798832.365 22965170.955 10 0 59162 28800.00000 0 -10870081.610 -2020148.356 23012140.969 10 0 59162 29700.00000 0 -10821689.662 -4828528.502 22613387.858 10 0 59162 30600.00000 0 -10973885.682 -7557210.957 21776619.918 10 0 59162 31500.00000 0 -11309509.424 -10139758.923 20518004.343 10 0 59162 32400.00000 0 -11800225.135 -12514909.972 18861860.782 10 0 59162 33300.00000 0 -12407779.439 -14628881.222 16840199.965 10 0 59162 34200.00000 0 -13085692.051 -16437371.218 14492115.351 10 0 59162 35100.00000 0 -13781309.235 -17907176.348 11863038.314 10 0 59162 36000.00000 0 -14438134.612 -19017355.142 9003869.987 10 0 59162 36900.00000 0 -14998340.035 -19759892.152 5970005.415 10 0 59162 37800.00000 0 -15405351.235 -20139833.697 2820267.911 10 0 59162 38700.00000 0 -15606399.360 -20174889.620 -384226.495 10 0 59162 39600.00000 0 -15554930.347 -19894517.399 -3581252.767 10 0 59162 40500.00000 0 -15212769.637 -19338526.844 -6708685.865 10 0 59162 41400.00000 0 -14551949.506 -18555263.837 -9705711.284 10 0 59162 42300.00000 0 -13556120.304 -17599449.562 -12514012.995 10 0 59162 43200.00000 0 -12221484.122 -16529766.424 -15078915.064 10 0 59162 44100.00000 0 -10557209.500 -15406292.773 -17350453.977 10 0 59162 45000.00000 0 -8585307.690 -14287895.112 -19284359.945 10 0 59162 45900.00000 0 -6339973.742 -13229688.394 -20842927.455 10 0 59162 46800.00000 0 -3866418.280 -12280672.114 -21995757.476 10 0 59162 47700.00000 0 -1219237.549 -11481642.535 -22720356.371 10 0 59162 48600.00000 0 1539611.230 -10863469.534 -23002579.483 10 0 59162 49500.00000 0 4343145.452 -10445811.113 -22836910.512 10 0 59162 50400.00000 0 7121906.604 -10236319.930 -22226571.000 10 0 59162 51300.00000 0 9806617.581 -10230375.286 -21183457.734 10 0 59162 52200.00000 0 12330837.210 -10411351.603 -19727909.182 10 0 59162 53100.00000 0 14633501.255 -10751411.635 -17888305.598 10 0 59162 54000.00000 0 16661244.049 -11212790.224 -15700510.701 10 0 59162 54900.00000 0 18370404.148 -11749513.585 -13207166.045 10 0 59162 55800.00000 0 19728630.600 -12309480.493 -10456852.313 10 0 59162 56700.00000 0 20716023.524 -12836816.344 -7503134.411 10 0 59162 57600.00000 0 21325762.340 -13274399.502 -4403509.649 10 0 59162 58500.00000 0 21564196.756 -13566452.086 -1218280.404 10 0 59162 59400.00000 0 21450398.399 -13661084.764 1990625.974 10 0 59162 60300.00000 0 21015193.823 -13512687.287 5160866.244 10 0 59162 61200.00000 0 20299721.381 -13084063.305 8230895.076 10 0 59162 62100.00000 0 19353574.442 -12348219.125 11141159.544 10 0 59162 63000.00000 0 18232610.514 -11289730.928 13835251.030 10 0 59162 63900.00000 0 16996519.471 -9905633.005 16260992.271 10 0 59162 64800.00000 0 15706253.658 -8205789.769 18371439.115 10 0 59162 65700.00000 0 14421427.869 -6212735.945 20125778.498 10 0 59162 66600.00000 0 13197797.852 -3960991.495 21490106.321 10 0 59162 67500.00000 0 12084922.165 -1495879.419 22438071.537 10 0 59162 68400.00000 0 11124104.143 1128105.103 22951375.265 10 0 59162 69300.00000 0 10346698.813 3849307.414 23020116.440 10 0 59162 70200.00000 0 9772854.254 6601225.765 22642978.226 10 0 59162 71100.00000 0 9410738.901 9315029.110 21827252.124 10 0 59162 72000.00000 0 9256286.275 11922177.537 20588699.441 10 0 59162 72900.00000 0 9293467.319 14357038.501 18951252.481 10 0 59162 73800.00000 0 9495078.830 16559391.955 16946560.506 10 0 59162 74700.00000 0 9824015.194 18476721.666 14613388.272 10 0 59162 75600.00000 0 10234970.565 20066198.598 11996877.542 10 0 59162 76500.00000 0 10676500.596 21296274.428 9147684.565 10 0 59162 77400.00000 0 11093357.624 22147819.022 6121009.076 10 0 59162 78300.00000 0 11429001.399 22614754.327 2975532.592 10 0 59162 79200.00000 0 11628179.653 22704157.851 -227714.170 10 0 59162 80100.00000 0 11639469.378 22435830.893 -3426533.133 10 0 59162 81000.00000 0 11417670.852 21841349.165 -6558767.077 10 0 59162 81900.00000 0 10925952.166 20962635.219 -9563510.581 10 0 59162 82800.00000 0 10137652.217 19850112.409 -12382299.550 10 0 59162 83700.00000 0 9037664.213 18560517.930 -14960255.572 10 0 59162 84600.00000 0 7623339.317 17154467.087 -17247162.111 10 0 59162 85500.00000 0 5904870.246 15693871.620 -19198450.712 99